Time,TemperatureF,DewpointF,PressureIn,WindDirection,WindDirectionDegrees,WindSpeedMPH,WindSpeedGustMPH,Humidity,HourlyPrecipIn,Conditions,Clouds,dailyrainin,SoftwareType,DateUTC
2013-02-13 00:01:00,18.0,12.0,30.26,WSW,253,1.0,-999.0,76,-99.99,,,-99.99,,2013-02-13 07:01:00,
2013-02-13 00:11:00,17.0,11.0,30.25,WSW,253,1.0,-999.0,76,-99.99,,,-99.99,,2013-02-13 07:11:00,
2013-02-13 00:21:00,17.0,11.0,30.25,WSW,253,1.0,-999.0,76,-99.99,,,-99.99,,2013-02-13 07:21:00,
2013-02-13 00:31:00,16.0,10.0,30.25,WSW,253,2.0,-999.0,78,-99.99,,,-99.99,,2013-02-13 07:31:00,
2013-02-13 00:41:00,16.0,10.0,30.25,WSW,253,2.0,-999.0,78,-99.99,,,-99.99,,2013-02-13 07:41:00,
2013-02-13 00:52:00,16.0,10.0,30.24,WSW,253,1.0,-999.0,77,-99.99,,,-99.99,,2013-02-13 07:52:00,
2013-02-13 01:01:00,16.0,10.0,30.25,WSW,253,1.0,-999.0,77,-99.99,,,-99.99,,2013-02-13 08:01:00,
2013-02-13 01:11:00,16.0,10.0,30.25,WSW,253,1.0,-999.0,77,-99.99,,,-99.99,,2013-02-13 08:11:00,
2013-02-13 01:21:00,16.0,10.0,30.25,WSW,253,2.0,-999.0,78,-99.99,,,-99.99,,2013-02-13 08:21:00,
2013-02-13 01:31:00,15.0,9.0,30.25,WSW,253,0.0,-999.0,78,-99.99,,,-99.99,,2013-02-13 08:31:00,
2013-02-13 01:42:00,15.0,9.0,30.25,WSW,253,0.0,-999.0,78,-99.99,,,-99.99,,2013-02-13 08:42:00,
2013-02-13 01:52:00,15.0,9.0,30.24,WSW,253,1.0,-999.0,78,-99.99,,,-99.99,,2013-02-13 08:52:00,
2013-02-13 02:01:00,15.0,9.0,30.25,WSW,253,1.0,-999.0,78,-99.99,,,-99.99,,2013-02-13 09:01:00,
2013-02-13 02:11:00,15.0,9.0,30.25,WSW,253,1.0,-999.0,78,-99.99,,,-99.99,,2013-02-13 09:11:00,
2013-02-13 02:21:00,15.0,9.0,30.23,WSW,253,2.0,-999.0,78,-99.99,,,-99.99,,2013-02-13 09:21:00,
2013-02-13 02:31:00,14.0,8.0,30.24,WSW,253,1.0,-999.0,78,-99.99,,,-99.99,,2013-02-13 09:31:00,
2013-02-13 02:41:00,14.0,9.0,30.23,WSW,253,0.0,-999.0,79,-99.99,,,-99.99,,2013-02-13 09:41:00,
2013-02-13 02:52:00,14.0,9.0,30.23,WSW,253,0.0,-999.0,79,-99.99,,,-99.99,,2013-02-13 09:52:00,
2013-02-13 03:01:00,13.0,8.0,30.22,WSW,253,1.0,-999.0,79,-99.99,,,-99.99,,2013-02-13 10:01:00,
2013-02-13 03:11:00,13.0,8.0,30.22,WSW,253,1.0,-999.0,79,-99.99,,,-99.99,,2013-02-13 10:11:00,
2013-02-13 03:21:00,13.0,8.0,30.22,WSW,253,1.0,-999.0,79,-99.99,,,-99.99,,2013-02-13 10:21:00,
2013-02-13 03:31:00,13.0,7.0,30.22,WSW,253,1.0,-999.0,78,-99.99,,,-99.99,,2013-02-13 10:31:00,
2013-02-13 03:41:00,13.0,8.0,30.23,WSW,253,3.0,-999.0,79,-99.99,,,-99.99,,2013-02-13 10:41:00,
2013-02-13 03:51:00,13.0,8.0,30.23,WSW,253,3.0,-999.0,79,-99.99,,,-99.99,,2013-02-13 10:51:00,
2013-02-13 04:01:00,12.0,7.0,30.23,WSW,253,1.0,-999.0,79,-99.99,,,-99.99,,2013-02-13 11:01:00,
2013-02-13 04:11:00,12.0,7.0,30.23,WSW,253,1.0,-999.0,79,-99.99,,,-99.99,,2013-02-13 11:11:00,
2013-02-13 04:22:00,12.0,7.0,30.23,WSW,253,1.0,-999.0,80,-99.99,,,-99.99,,2013-02-13 11:22:00,
2013-02-13 04:31:00,12.0,7.0,30.24,WSW,253,1.0,-999.0,80,-99.99,,,-99.99,,2013-02-13 11:31:00,
2013-02-13 04:41:00,12.0,7.0,30.26,WSW,253,1.0,-999.0,80,-99.99,,,-99.99,,2013-02-13 11:41:00,
2013-02-13 04:52:00,12.0,7.0,30.26,WSW,253,1.0,-999.0,80,-99.99,,,-99.99,,2013-02-13 11:52:00,
2013-02-13 05:02:00,11.0,6.0,30.26,WSW,253,0.0,-999.0,79,-99.99,,,-99.99,,2013-02-13 12:02:00,
2013-02-13 05:11:00,11.0,6.0,30.25,WSW,253,2.0,-999.0,81,-99.99,,,-99.99,,2013-02-13 12:11:00,
2013-02-13 05:21:00,11.0,6.0,30.25,WSW,253,2.0,-999.0,81,-99.99,,,-99.99,,2013-02-13 12:21:00,
2013-02-13 05:31:00,12.0,7.0,30.26,WSW,253,1.0,-999.0,80,-99.99,,,-99.99,,2013-02-13 12:31:00,
2013-02-13 05:42:00,12.0,7.0,30.27,WSW,253,1.0,-999.0,80,-99.99,,,-99.99,,2013-02-13 12:42:00,
2013-02-13 05:52:00,12.0,7.0,30.27,WSW,253,1.0,-999.0,80,-99.99,,,-99.99,,2013-02-13 12:52:00,
2013-02-13 06:02:00,12.0,7.0,30.27,WSW,253,1.0,-999.0,80,-99.99,,,-99.99,,2013-02-13 13:02:00,
2013-02-13 06:11:00,12.0,7.0,30.27,WSW,253,1.0,-999.0,80,-99.99,,,-99.99,,2013-02-13 13:11:00,
2013-02-13 06:21:00,11.0,6.0,30.27,WSW,253,0.0,-999.0,80,-99.99,,,-99.99,,2013-02-13 13:21:00,
2013-02-13 06:31:00,11.0,6.0,30.28,WSW,253,0.0,-999.0,80,-99.99,,,-99.99,,2013-02-13 13:31:00,
2013-02-13 06:41:00,11.0,6.0,30.29,WSW,253,0.0,-999.0,80,-99.99,,,-99.99,,2013-02-13 13:41:00,
2013-02-13 06:52:00,11.0,6.0,30.29,WSW,253,0.0,-999.0,80,-99.99,,,-99.99,,2013-02-13 13:52:00,
2013-02-13 07:01:00,11.0,6.0,30.29,WSW,253,0.0,-999.0,80,-99.99,,,-99.99,,2013-02-13 14:01:00,
2013-02-13 07:11:00,11.0,6.0,30.29,WSW,253,0.0,-999.0,80,-99.99,,,-99.99,,2013-02-13 14:11:00,
2013-02-13 07:21:00,11.0,6.0,30.31,WSW,253,0.0,-999.0,80,-99.99,,,-99.99,,2013-02-13 14:21:00,
2013-02-13 07:31:00,11.0,6.0,30.30,WSW,253,1.0,-999.0,81,-99.99,,,-99.99,,2013-02-13 14:31:00,
2013-02-13 07:42:00,11.0,6.0,30.32,WSW,253,2.0,-999.0,80,-99.99,,,-99.99,,2013-02-13 14:42:00,
2013-02-13 07:52:00,11.0,6.0,30.32,WSW,253,2.0,-999.0,80,-99.99,,,-99.99,,2013-02-13 14:52:00,
2013-02-13 08:01:00,13.0,8.0,30.32,WSW,253,2.0,-999.0,79,-99.99,,,-99.99,,2013-02-13 15:01:00,
2013-02-13 08:11:00,15.0,9.0,30.31,WSW,254,3.0,-999.0,77,-99.99,,,-99.99,,2013-02-13 15:11:00,
2013-02-13 08:21:00,15.0,9.0,30.31,WSW,254,3.0,-999.0,77,-99.99,,,-99.99,,2013-02-13 15:21:00,
2013-02-13 08:31:00,16.0,9.0,30.30,WSW,254,2.0,-999.0,75,-99.99,,,-99.99,,2013-02-13 15:31:00,
2013-02-13 08:41:00,16.0,9.0,30.30,WSW,254,2.0,-999.0,75,-99.99,,,-99.99,,2013-02-13 15:41:00,
2013-02-13 08:52:00,17.0,10.0,30.29,WSW,254,3.0,-999.0,73,-99.99,,,-99.99,,2013-02-13 15:52:00,
2013-02-13 09:01:00,19.0,11.0,30.27,WSW,254,2.0,-999.0,72,-99.99,,,-99.99,,2013-02-13 16:01:00,
2013-02-13 09:11:00,21.0,12.0,30.25,WSW,254,3.0,-999.0,68,-99.99,,,-99.99,,2013-02-13 16:11:00,
2013-02-13 09:21:00,21.0,12.0,30.25,WSW,254,3.0,-999.0,68,-99.99,,,-99.99,,2013-02-13 16:21:00,
2013-02-13 09:31:00,22.0,13.0,30.26,WSW,254,2.0,-999.0,68,-99.99,,,-99.99,,2013-02-13 16:31:00,
2013-02-13 09:41:00,22.0,13.0,30.26,WSW,254,2.0,-999.0,68,-99.99,,,-99.99,,2013-02-13 16:41:00,
2013-02-13 09:52:00,24.0,14.0,30.25,WSW,254,1.0,-999.0,66,-99.99,,,-99.99,,2013-02-13 16:52:00,
2013-02-13 10:01:00,25.0,15.0,30.25,WSW,254,2.0,-999.0,64,-99.99,,,-99.99,,2013-02-13 17:01:00,
2013-02-13 10:11:00,25.0,15.0,30.25,WSW,254,2.0,-999.0,64,-99.99,,,-99.99,,2013-02-13 17:11:00,
2013-02-13 10:21:00,27.0,16.0,30.23,WSW,254,2.0,-999.0,63,-99.99,,,-99.99,,2013-02-13 17:21:00,
2013-02-13 10:31:00,27.0,15.0,30.26,WSW,254,2.0,-999.0,61,-99.99,,,-99.99,,2013-02-13 17:31:00,
2013-02-13 10:41:00,27.0,15.0,30.26,WSW,254,2.0,-999.0,61,-99.99,,,-99.99,,2013-02-13 17:41:00,
2013-02-13 10:52:00,28.0,15.0,30.24,WSW,254,1.0,-999.0,58,-99.99,,,-99.99,,2013-02-13 17:52:00,
2013-02-13 11:01:00,30.0,16.0,30.23,WSW,254,1.0,-999.0,55,-99.99,,,-99.99,,2013-02-13 18:01:00,
2013-02-13 11:11:00,30.0,16.0,30.23,WSW,254,1.0,-999.0,55,-99.99,,,-99.99,,2013-02-13 18:11:00,
2013-02-13 11:22:00,30.0,16.0,30.24,WSW,252,3.0,-999.0,55,-99.99,,,-99.99,,2013-02-13 18:22:00,
2013-02-13 11:31:00,30.0,16.0,30.25,WSW,252,1.0,-999.0,56,-99.99,,,-99.99,,2013-02-13 18:31:00,
2013-02-13 11:41:00,30.0,16.0,30.25,WSW,252,1.0,-999.0,56,-99.99,,,-99.99,,2013-02-13 18:41:00,
2013-02-13 11:52:00,31.0,16.0,30.25,WSW,252,2.0,-999.0,53,-99.99,,,-99.99,,2013-02-13 18:52:00,
2013-02-13 12:01:00,31.0,15.0,30.24,WSW,252,2.0,-999.0,52,-99.99,,,-99.99,,2013-02-13 19:01:00,
2013-02-13 12:11:00,32.0,18.0,30.23,WSW,252,2.0,-999.0,55,-99.99,,,-99.99,,2013-02-13 19:11:00,
2013-02-13 12:21:00,32.0,18.0,30.23,WSW,252,2.0,-999.0,55,-99.99,,,-99.99,,2013-02-13 19:21:00,
2013-02-13 12:31:00,32.0,16.0,30.23,WSW,251,2.0,-999.0,52,-99.99,,,-99.99,,2013-02-13 19:31:00,
2013-02-13 12:41:00,32.0,16.0,30.23,WSW,251,2.0,-999.0,52,-99.99,,,-99.99,,2013-02-13 19:41:00,
2013-02-13 12:52:00,33.0,18.0,30.21,WSW,251,3.0,-999.0,53,-99.99,,,-99.99,,2013-02-13 19:52:00,
2013-02-13 13:01:00,33.0,17.0,30.20,WSW,250,4.0,-999.0,52,-99.99,,,-99.99,,2013-02-13 20:01:00,
2013-02-13 13:11:00,34.0,17.0,30.19,SSW,198,3.0,-999.0,50,-99.99,,,-99.99,,2013-02-13 20:11:00,
2013-02-13 13:21:00,34.0,17.0,30.19,SSW,198,3.0,-999.0,50,-99.99,,,-99.99,,2013-02-13 20:21:00,
2013-02-13 13:31:00,34.0,17.0,30.19,SW,221,4.0,-999.0,50,-99.99,,,-99.99,,2013-02-13 20:31:00,
2013-02-13 13:41:00,35.0,17.0,30.18,SW,214,2.0,-999.0,48,-99.99,,,-99.99,,2013-02-13 20:41:00,
2013-02-13 13:52:00,35.0,17.0,30.18,SW,214,2.0,-999.0,48,-99.99,,,-99.99,,2013-02-13 20:52:00,
2013-02-13 14:01:00,36.0,18.0,30.18,SSW,210,2.0,-999.0,47,-99.99,,,-99.99,,2013-02-13 21:01:00,
2013-02-13 14:11:00,36.0,18.0,30.18,SSW,210,2.0,-999.0,47,-99.99,,,-99.99,,2013-02-13 21:11:00,
2013-02-13 14:21:00,37.0,19.0,30.16,South,177,3.0,-999.0,47,-99.99,,,-99.99,,2013-02-13 21:21:00,
2013-02-13 14:31:00,37.0,20.0,30.15,WSW,242,4.0,-999.0,49,-99.99,,,-99.99,,2013-02-13 21:31:00,
2013-02-13 14:42:00,37.0,20.0,30.15,WSW,242,4.0,-999.0,49,-99.99,,,-99.99,,2013-02-13 21:42:00,
2013-02-13 14:52:00,37.0,20.0,30.15,WSW,242,4.0,-999.0,49,-99.99,,,-99.99,,2013-02-13 21:52:00,
2013-02-13 15:01:00,39.0,20.0,30.12,SW,228,7.0,-999.0,46,-99.99,,,-99.99,,2013-02-13 22:01:00,
2013-02-13 15:11:00,39.0,20.0,30.12,SW,228,7.0,-999.0,46,-99.99,,,-99.99,,2013-02-13 22:11:00,
2013-02-13 15:21:00,40.0,21.0,30.11,West,260,8.0,-999.0,46,-99.99,,,-99.99,,2013-02-13 22:21:00,
2013-02-13 15:31:00,40.0,21.0,30.13,WSW,244,9.0,-999.0,46,-99.99,,,-99.99,,2013-02-13 22:31:00,
2013-02-13 15:42:00,40.0,21.0,30.13,WSW,244,9.0,-999.0,46,-99.99,,,-99.99,,2013-02-13 22:42:00,
2013-02-13 15:52:00,40.0,20.0,30.11,West,264,10.0,-999.0,45,-99.99,,,-99.99,,2013-02-13 22:52:00,
2013-02-13 16:01:00,40.0,22.0,30.11,WSW,247,10.0,-999.0,48,-99.99,,,-99.99,,2013-02-13 23:01:00,
2013-02-13 16:11:00,40.0,22.0,30.11,WSW,247,10.0,-999.0,48,-99.99,,,-99.99,,2013-02-13 23:11:00,
2013-02-13 16:21:00,41.0,21.0,30.11,SW,233,9.0,-999.0,45,-99.99,,,-99.99,,2013-02-13 23:21:00,
2013-02-13 16:31:00,40.0,21.0,30.12,WSW,252,11.0,-999.0,46,-99.99,,,-99.99,,2013-02-13 23:31:00,
2013-02-13 16:41:00,40.0,21.0,30.12,WSW,252,11.0,-999.0,46,-99.99,,,-99.99,,2013-02-13 23:41:00,
2013-02-13 16:52:00,40.0,21.0,30.13,WNW,284,8.0,-999.0,47,-99.99,,,-99.99,,2013-02-13 23:52:00,
2013-02-13 17:01:00,40.0,21.0,30.12,SW,226,6.0,-999.0,47,-99.99,,,-99.99,,2013-02-14 00:01:00,
2013-02-13 17:11:00,40.0,21.0,30.12,SW,226,6.0,-999.0,47,-99.99,,,-99.99,,2013-02-14 00:11:00,
2013-02-13 17:21:00,40.0,22.0,30.13,SW,231,4.0,-999.0,48,-99.99,,,-99.99,,2013-02-14 00:21:00,
2013-02-13 17:31:00,39.0,20.0,30.12,SW,231,3.0,-999.0,47,-99.99,,,-99.99,,2013-02-14 00:31:00,
2013-02-13 17:41:00,39.0,20.0,30.12,SW,231,3.0,-999.0,47,-99.99,,,-99.99,,2013-02-14 00:41:00,
2013-02-13 17:52:00,38.0,21.0,30.14,SW,231,1.0,-999.0,49,-99.99,,,-99.99,,2013-02-14 00:52:00,
2013-02-13 18:01:00,36.0,20.0,30.15,SW,231,0.0,-999.0,52,-99.99,,,-99.99,,2013-02-14 01:01:00,
2013-02-13 18:11:00,36.0,20.0,30.15,SW,231,0.0,-999.0,52,-99.99,,,-99.99,,2013-02-14 01:11:00,
2013-02-13 18:21:00,35.0,20.0,30.17,SW,231,1.0,-999.0,55,-99.99,,,-99.99,,2013-02-14 01:21:00,
2013-02-13 18:31:00,34.0,20.0,30.17,SW,231,1.0,-999.0,56,-99.99,,,-99.99,,2013-02-14 01:31:00,
2013-02-13 18:41:00,34.0,20.0,30.17,SW,231,1.0,-999.0,56,-99.99,,,-99.99,,2013-02-14 01:41:00,
2013-02-13 18:51:00,34.0,20.0,30.20,SW,231,0.0,-999.0,57,-99.99,,,-99.99,,2013-02-14 01:51:00,
2013-02-13 19:01:00,34.0,20.0,30.20,SW,231,0.0,-999.0,57,-99.99,,,-99.99,,2013-02-14 02:01:00,
2013-02-13 19:11:00,32.0,19.0,30.20,SW,231,0.0,-999.0,59,-99.99,,,-99.99,,2013-02-14 02:11:00,
2013-02-13 19:21:00,32.0,19.0,30.20,SW,231,0.0,-999.0,59,-99.99,,,-99.99,,2013-02-14 02:21:00,
2013-02-13 19:31:00,32.0,19.0,30.17,SW,233,2.0,-999.0,59,-99.99,,,-99.99,,2013-02-14 02:31:00,
2013-02-13 19:42:00,32.0,19.0,30.17,SW,233,2.0,-999.0,59,-99.99,,,-99.99,,2013-02-14 02:42:00,
2013-02-13 19:51:00,32.0,19.0,30.17,SW,233,2.0,-999.0,59,-99.99,,,-99.99,,2013-02-14 02:51:00,
2013-02-13 20:02:00,32.0,20.0,30.19,SW,233,1.0,-999.0,61,-99.99,,,-99.99,,2013-02-14 03:02:00,
2013-02-13 20:11:00,31.0,20.0,30.20,SW,233,0.0,-999.0,62,-99.99,,,-99.99,,2013-02-14 03:11:00,
2013-02-13 20:21:00,31.0,20.0,30.20,SW,233,0.0,-999.0,62,-99.99,,,-99.99,,2013-02-14 03:21:00,
2013-02-13 20:31:00,30.0,19.0,30.16,SW,233,0.0,-999.0,63,-99.99,,,-99.99,,2013-02-14 03:31:00,
2013-02-13 20:42:00,30.0,19.0,30.16,SW,233,0.0,-999.0,63,-99.99,,,-99.99,,2013-02-14 03:42:00,
2013-02-13 20:52:00,30.0,19.0,30.17,SW,233,0.0,-999.0,64,-99.99,,,-99.99,,2013-02-14 03:52:00,
2013-02-13 21:01:00,29.0,19.0,30.17,SW,233,1.0,-999.0,66,-99.99,,,-99.99,,2013-02-14 04:01:00,
2013-02-13 21:11:00,29.0,19.0,30.18,SW,233,1.0,-999.0,67,-99.99,,,-99.99,,2013-02-14 04:11:00,
2013-02-13 21:21:00,29.0,19.0,30.18,SW,233,1.0,-999.0,67,-99.99,,,-99.99,,2013-02-14 04:21:00,
2013-02-13 21:31:00,29.0,20.0,30.14,SW,233,1.0,-999.0,69,-99.99,,,-99.99,,2013-02-14 04:31:00,
2013-02-13 21:41:00,29.0,20.0,30.14,SW,233,1.0,-999.0,69,-99.99,,,-99.99,,2013-02-14 04:41:00,
2013-02-13 21:51:00,29.0,20.0,30.14,SW,233,1.0,-999.0,69,-99.99,,,-99.99,,2013-02-14 04:51:00,
2013-02-13 22:01:00,29.0,20.0,30.14,SW,233,1.0,-999.0,69,-99.99,,,-99.99,,2013-02-14 05:01:00,
2013-02-13 22:11:00,29.0,20.0,30.14,SW,233,1.0,-999.0,69,-99.99,,,-99.99,,2013-02-14 05:11:00,
2013-02-13 22:22:00,27.0,19.0,30.16,SW,233,0.0,-999.0,72,-99.99,,,-99.99,,2013-02-14 05:22:00,
2013-02-13 22:32:00,25.0,18.0,30.15,SW,233,0.0,-999.0,75,-99.99,,,-99.99,,2013-02-14 05:32:00,
2013-02-13 22:42:00,25.0,18.0,30.15,SW,233,0.0,-999.0,75,-99.99,,,-99.99,,2013-02-14 05:42:00,
2013-02-13 22:52:00,25.0,19.0,30.16,SW,233,0.0,-999.0,77,-99.99,,,-99.99,,2013-02-14 05:52:00,
2013-02-13 23:01:00,24.0,18.0,30.17,SW,233,2.0,-999.0,77,-99.99,,,-99.99,,2013-02-14 06:01:00,
2013-02-13 23:11:00,23.0,17.0,30.18,SW,233,3.0,-999.0,79,-99.99,,,-99.99,,2013-02-14 06:11:00,
2013-02-13 23:21:00,23.0,17.0,30.18,SW,233,3.0,-999.0,79,-99.99,,,-99.99,,2013-02-14 06:21:00,
2013-02-13 23:31:00,23.0,17.0,30.17,SW,233,4.0,-999.0,79,-99.99,,,-99.99,,2013-02-14 06:31:00,
2013-02-13 23:41:00,23.0,17.0,30.17,SW,233,4.0,-999.0,79,-99.99,,,-99.99,,2013-02-14 06:41:00,
2013-02-13 23:52:00,22.0,16.0,30.17,SW,233,1.0,-999.0,79,-99.99,,,-99.99,,2013-02-14 06:52:00,